Location: *
(32.8140°S, 174.6161°E)
Time: 04:03:40
(UTC+00:00)

ERS-2 - Pass Details

Date: 10 December 2019
Orbit: 495 x 498 km, 98.5° (Epoch: 27 January)

Event Time Altitude Azimuth Distance (km) Brightness Sun altitude
Rises 14:44:57 0° 173° (S) 2,625 6.7 -23.7°
Reaches altitude 10° 14:47:05 10° 176° (S) 1,732 5.6 -23.4°
Enters shadow 14:50:08 49° 215° (SW) 659 2.7 -23.0°
